Date String (YYYY-MM-DD hh:mm:ss) UTC,Instrument flags,absolute air pressure of the measurement (hPa),sample flow rate (lpm),inlet stack bypass flow (lpm),air temperature of the measurement (°C),ambient temperature measured by the external sensor (°C),aerosol sample conditioner tube jacket temperature (°C),OPC LED temperature (°C),internal box temperature (°C),relative humidity of the measurement (%),span deviation,mass concentration of particles derived from Lorenz-Mie calculation of OPC scattering (μg/m³),mass concentration of particles derived from Lorenz-Mie calculation of OPC scattering (μg/m³),mass concentration of particles derived from Lorenz-Mie calculation of OPC scattering (μg/m³)
DateTimeUTC,F1_M11,P_M11,Q1_M11,Q2_M11,T1_M11,T2_M11,T3_M11,T4_M11,T5_M11,U1_M11,ZSPAN_M11,X0_M11,X2_M11,X1_M11
2023-11-27 00:00:00,SystemResetWarning,0831.1,5.00,000.00,024.1,022.9,000.0,032.7,025.2,9.4,0003.5,0009.63,0006.64,0006.32
2023-11-27 00:01:00,SystemResetWarning,0831.2,5.01,000.00,024.1,022.9,000.0,032.6,025.2,9.3,0003.5,0009.64,0006.67,0006.35
2023-11-27 00:02:00,SystemResetWarning,0831.2,4.99,000.00,024.1,022.9,000.0,032.6,025.1,9.3,0003.0,0009.68,0006.68,0006.37
2023-11-27 00:03:00,SystemResetWarning,0831.2,4.99,000.00,024.0,022.9,000.0,032.6,025.1,9.4,0003.0,0009.57,0006.63,0006.37
2023-11-27 00:04:00,SystemResetWarning,0831.2,4.99,000.00,024.0,022.9,000.0,032.6,025.0,9.4,0000.0,0009.25,0006.60,0006.35
2023-11-27 00:05:00,SystemResetWarning,0831.2,4.99,000.00,024.0,022.8,000.0,032.5,025.0,9.4,0000.4,0009.00,0006.55,0006.31
2023-11-27 00:06:00,SystemResetWarning,0831.2,5.00,000.00,023.9,022.8,000.0,032.5,025.0,9.3,0000.6,0008.93,0006.50,0006.26
2023-11-27 00:07:00,SystemResetWarning,0831.2,5.00,000.00,023.9,022.8,000.0,032.5,025.0,9.3,0000.0,0008.85,0006.43,0006.21
2023-11-27 00:08:00,SystemResetWarning,0831.2,5.00,000.00,023.9,022.8,000.0,032.5,025.0,9.3,0000.0,0008.71,0006.34,0006.14
2023-11-27 00:09:00,SystemResetWarning,0831.1,5.00,000.00,023.9,022.7,000.0,032.4,024.9,9.3,0000.0,0008.68,0006.29,0006.07
2023-11-27 00:10:00,SystemResetWarning,0831.1,5.00,000.00,023.8,022.7,000.0,032.4,024.9,9.3,0000.0,0008.63,0006.26,0006.02
2023-11-27 00:11:00,SystemResetWarning,0831.1,5.01,000.00,023.8,022.6,000.0,032.4,024.9,9.4,0000.0,0008.61,0006.24,0005.99
2023-11-27 00:12:00,SystemResetWarning,0831.1,5.00,000.00,023.8,022.6,000.0,032.4,024.9,9.5,0000.0,0008.78,0006.21,0005.97
2023-11-27 00:13:00,SystemResetWarning,0831.1,5.00,000.00,023.8,022.6,000.0,032.3,024.9,9.7,0000.0,0008.97,0006.17,0005.93
2023-11-27 00:14:00,SystemResetWarning,0831.1,5.01,000.00,023.7,022.6,000.0,032.3,024.8,9.8,0000.0,0008.96,0006.12,0005.90
2023-11-27 00:15:00,SystemResetWarning,0831.1,5.00,000.00,023.7,022.5,000.0,032.3,024.8,9.9,0000.0,0009.02,0006.10,0005.86
2023-11-27 00:16:00,SystemResetWarning,0831.1,5.00,000.00,023.7,022.5,000.0,032.2,024.7,9.9,0000.0,0009.04,0006.11,0005.87
2023-11-27 00:17:00,SystemResetWarning,0831.1,5.00,000.00,023.6,022.5,000.0,032.2,024.7,9.8,0000.0,0009.08,0006.14,0005.88
2023-11-27 00:18:00,SystemResetWarning,0831.1,5.00,000.00,023.6,022.5,000.0,032.2,024.7,9.8,0000.0,0009.56,0006.15,0005.88
2023-11-27 00:19:00,SystemResetWarning,0831.2,5.00,000.00,023.6,022.4,000.0,032.2,024.7,9.7,0000.0,0009.84,0006.15,0005.84
2023-11-27 00:20:00,SystemResetWarning,0831.1,5.00,000.00,023.6,022.4,000.0,032.2,024.7,9.6,0000.0,0009.90,0006.13,0005.79
2023-11-27 00:21:00,SystemResetWarning,0831.2,4.99,000.00,023.5,022.4,000.0,032.1,024.6,9.5,0000.0,0009.98,0006.09,0005.73
2023-11-27 00:22:00,SystemResetWarning,0831.2,4.99,000.00,023.5,022.4,000.0,032.1,024.6,9.6,0000.0,0009.98,0006.04,0005.67
2023-11-27 00:23:00,SystemResetWarning,0831.2,4.99,000.00,023.5,022.3,000.0,032.1,024.5,9.8,0000.0,0009.72,0005.98,0005.60
2023-11-27 00:24:00,SystemResetWarning,0831.2,4.99,000.00,023.4,022.3,000.0,032.0,024.5,9.9,0000.0,0009.68,0005.92,0005.55
2023-11-27 00:25:00,SystemResetWarning,0831.2,5.01,000.00,023.4,022.3,000.0,032.0,024.4,9.9,0000.0,0009.67,0005.92,0005.53
2023-11-27 00:26:00,SystemResetWarning,0831.2,5.01,000.00,023.4,022.2,000.0,032.0,024.4,9.9,0000.0,0009.61,0005.92,0005.54
2023-11-27 00:27:00,SystemResetWarning,0831.2,5.00,000.00,023.3,022.2,000.0,032.0,024.4,9.9,0000.0,0009.61,0005.93,0005.55
2023-11-27 00:28:00,SystemResetWarning,0831.3,5.00,000.00,023.3,022.2,000.0,031.9,024.4,9.9,0000.0,0009.52,0005.87,0005.50
2023-11-27 00:29:00,SystemResetWarning,0831.3,5.00,000.00,023.3,022.1,000.0,031.9,024.4,10.0,0000.0,0008.97,0005.78,0005.43
2023-11-27 00:30:00,SystemResetWarning,0831.3,5.00,000.00,023.2,022.1,000.0,031.9,024.2,10.1,0000.0,0008.59,0005.70,0005.39
2023-11-27 00:31:00,SystemResetWarning,0831.3,5.00,000.00,023.2,022.1,000.0,031.8,024.2,10.1,0000.0,0008.48,0005.64,0005.36
2023-11-27 00:32:00,SystemResetWarning,0831.3,5.00,000.00,023.2,022.0,000.0,031.8,024.2,10.0,0000.0,0008.33,0005.58,0005.34
2023-11-27 00:33:00,SystemResetWarning,0831.2,5.00,000.00,023.1,022.0,000.0,031.8,024.1,10.0,0000.0,0008.29,0005.56,0005.32
2023-11-27 00:34:00,SystemResetWarning,0831.2,5.00,000.00,023.1,021.9,000.0,031.8,024.1,10.1,0000.0,0008.29,0005.56,0005.30
2023-11-27 00:35:00,SystemResetWarning,0831.2,5.00,000.00,023.1,021.9,000.0,031.7,024.1,10.4,0000.0,0008.04,0005.54,0005.25
2023-11-27 00:36:00,SystemResetWarning,0831.1,5.00,000.00,023.0,021.9,000.0,031.7,024.1,10.5,0000.0,0007.81,0005.43,0005.16
2023-11-27 00:37:00,SystemResetWarning,0831.1,5.00,000.00,023.0,021.9,000.0,031.7,024.2,10.5,0000.0,0007.68,0005.30,0005.04
2023-11-27 00:38:00,SystemResetWarning,0831.2,5.00,000.00,023.0,021.9,000.0,031.6,024.2,10.7,0000.0,0007.58,0005.18,0004.91
2023-11-27 00:39:00,SystemResetWarning,0831.2,4.99,000.00,023.0,021.9,000.0,031.6,024.1,10.7,0000.0,0007.52,0005.09,0004.82
2023-11-27 00:40:00,SystemResetWarning,0831.2,5.00,000.00,023.0,021.9,000.0,031.6,024.1,10.7,0000.0,0007.81,0005.02,0004.74
2023-11-27 00:41:00,SystemResetWarning,0831.2,5.00,000.00,023.0,021.9,000.0,031.6,024.0,10.4,0000.0,0007.77,0004.92,0004.66
2023-11-27 00:42:00,SystemResetWarning,0831.1,5.01,000.00,022.9,021.8,000.0,031.5,024.0,10.2,0000.0,0007.72,0004.84,0004.58
2023-11-27 00:43:00,SystemResetWarning,0831.1,5.00,000.00,022.9,021.8,000.0,031.5,023.9,10.6,0000.0,0007.72,0004.77,0004.49
2023-11-27 00:44:00,SystemResetWarning,0831.1,5.00,000.00,022.8,021.8,000.0,031.5,023.9,10.8,0000.0,0007.53,0004.67,0004.41
2023-11-27 00:45:00,SystemResetWarning,0831.1,5.00,000.00,022.8,021.7,000.0,031.5,023.8,10.5,0000.0,0007.44,0004.58,0004.31
2023-11-27 00:46:00,SystemResetWarning,0831.1,5.00,000.00,022.8,021.7,000.0,031.4,023.8,10.2,0000.0,0007.52,0004.48,0004.23
2023-11-27 00:47:00,SystemResetWarning,0831.1,5.00,000.00,022.8,021.6,000.0,031.4,023.8,9.6,0000.0,0008.07,0004.43,0004.20
2023-11-27 00:48:00,SystemResetWarning,0831.1,4.99,000.00,022.7,021.6,000.0,031.4,023.7,9.2,0001.0,0008.02,0004.40,0004.17
2023-11-27 00:49:00,SystemResetWarning,0831.0,5.00,000.00,022.7,021.6,000.0,031.3,023.8,8.8,0000.0,0007.99,0004.37,0004.13
2023-11-27 00:50:00,SystemResetWarning,0830.9,5.00,000.00,022.7,021.6,000.0,031.3,023.7,8.5,0000.0,0007.98,0004.37,0004.14
2023-11-27 00:51:00,SystemResetWarning,0830.9,5.00,000.00,022.7,021.6,000.0,031.3,023.7,8.7,0000.0,0007.75,0004.44,0004.21
2023-11-27 00:52:00,SystemResetWarning,0830.9,5.00,000.00,022.6,021.6,000.0,031.3,023.8,8.8,0000.0,0007.78,0004.54,0004.29
2023-11-27 00:53:00,SystemResetWarning,0831.0,5.00,000.00,022.6,021.6,000.0,031.2,023.8,8.8,0000.0,0007.85,0004.62,0004.35
2023-11-27 00:54:00,SystemResetWarning,0831.1,5.00,000.00,022.6,021.5,000.0,031.2,023.7,9.3,0000.0,0007.82,0004.68,0004.42
2023-11-27 00:55:00,SystemResetWarning,0831.1,5.00,000.00,022.6,021.6,000.0,031.2,023.7,10.0,0000.0,0007.86,0004.72,0004.47
2023-11-27 00:56:00,SystemResetWarning,0831.1,4.99,000.00,022.6,021.5,000.0,031.2,023.6,10.4,0000.0,0007.89,0004.76,0004.53
2023-11-27 00:57:00,SystemResetWarning,0831.1,5.00,000.00,022.5,021.4,000.0,031.1,023.5,10.6,0000.0,0007.83,0004.83,0004.61
2023-11-27 00:58:00,SystemResetWarning,0831.0,5.01,000.00,022.5,021.4,000.0,031.1,023.5,11.0,0000.0,0007.33,0004.91,0004.66
2023-11-27 00:59:00,SystemResetWarning,0830.9,5.01,000.00,022.5,021.3,000.0,031.1,023.5,10.9,0000.0,0007.38,0004.94,0004.69
